Vorticity
nan nan nan nan nan nan nan nan nan nan nan nan nan nan nan nan nan nan nan nan nan nan nan nan nan nan nan nan nan nan nan nan nan nan nan nan nan nan nan nan nan nan nan nan
nan 10 9 9 7 8 8 9 8 12 13 7 14 14 13 13 8 6 4 5 5 6 10 11 9 9 8 8 6 7 6 6 5 6 7 9 10 9 10 10 9 9 8 nan
nan 4 9 9 7 9 11 10 8 6 9 12 13 15 14 11 9 9 6 7 9 8 6 8 9 8 7 7 8 7 8 6 6 5 4 7 8 10 9 9 10 10 9 nan
nan 8 8 8 9 7 7 9 3 6 12 11 7 14 10 21 12 5 8 7 6 7 8 9 8 8 7 7 7 8 7 6 7 6 4 6 7 7 8 9 9 9 9 nan
nan 6 9 7 11 10 5 8 13 14 8 7 5 12 9 15 15 10 10 8 6 7 8 8 8 7 6 8 7 7 8 7 9 7 5 4 6 7 8 10 9 8 9 nan
nan 9 8 7 10 10 14 10 10 13 11 8 12 6 9 11 12 12 12 12 9 8 8 9 9 8 7 7 8 8 8 7 9 8 8 6 4 6 6 8 8 9 9 nan
nan 11 8 7 8 6 11 14 10 8 11 8 6 8 10 5 10 16 17 13 11 8 9 10 9 7 8 8 7 7 7 8 9 9 7 7 7 7 7 7 8 7 7 nan
nan 4 8 12 12 9 5 12 7 8 9 11 9 7 10 9 8 11 13 18 17 11 10 10 9 8 9 7 7 7 6 6 8 9 8 7 7 7 9 8 9 9 8 nan
nan 7 7 9 10 10 11 8 10 10 7 12 8 5 10 8 7 11 14 19 17 14 11 10 9 8 8 8 9 7 6 7 7 8 7 8 7 8 9 9 7 9 9 nan
nan 11 7 7 9 11 14 6 8 12 12 6 10 12 5 3 5 3 12 19 19 18 13 11 11 9 7 9 10 9 8 8 6 7 7 9 8 7 7 9 9 7 8 nan
nan 10 8 9 8 5 5 13 15 15 9 8 9 11 4 3 3 6 12 12 20 24 17 12 11 12 10 9 9 8 9 8 7 8 8 7 9 8 7 8 8 8 8 nan
nan 10 12 6 7 14 13 7 10 6 9 12 10 7 5 -0 2 8 10 13 21 23 21 15 13 12 13 10 10 10 8 9 9 8 9 8 9 9 7 7 9 10 8 nan
nan 5 6 9 12 14 10 9 7 7 13 10 6 -3 -0 2 9 7 10 16 19 19 22 15 16 12 10 9 9 9 10 9 8 8 9 8 9 10 8 7 8 8 9 nan
nan 13 12 7 3 5 5 6 7 8 6 10 1 -3 2 7 3 5 13 17 16 17 15 19 17 15 14 12 9 9 9 9 10 10 9 8 9 9 9 9 10 9 8 nan
nan 10 9 6 8 8 10 7 7 5 4 -0 1 10 14 11 8 12 12 12 12 12 12 15 14 15 17 18 17 11 12 13 11 8 9 10 9 10 10 10 9 10 9 nan
nan 15 11 9 15 9 7 9 12 12 8 10 11 16 9 7 14 8 11 13 12 12 13 11 10 8 11 14 14 14 15 12 10 11 11 8 10 11 10 9 9 8 8 nan
nan 12 9 10 10 10 16 16 10 11 13 15 12 8 3 11 8 6 10 11 10 11 11 13 12 12 9 9 8 11 10 13 15 10 9 9 11 11 11 10 10 10 10 nan
nan 10 8 10 12 12 8 12 16 12 9 7 7 9 9 12 9 5 7 11 8 8 10 12 12 10 11 12 10 10 10 14 15 11 11 10 11 10 11 13 11 10 13 nan
nan 10 9 14 7 6 11 12 13 14 14 17 12 6 7 12 12 10 7 13 12 9 8 10 9 11 11 11 16 15 13 16 14 17 15 15 11 10 12 11 10 11 12 nan
nan 10 10 9 10 11 11 5 7 11 11 12 9 7 8 12 14 12 8 9 10 12 13 12 12 10 8 12 18 17 13 13 13 12 13 17 18 14 13 11 9 11 12 nan
nan 13 11 9 8 8 12 9 15 7 1 3 11 14 11 9 6 1 11 14 11 9 11 12 14 11 10 12 13 11 11 6 6 6 8 14 8 11 11 8 12 12 11 nan
nan 9 9 11 9 12 9 7 11 6 6 5 8 9 10 11 7 2 14 14 14 10 9 10 9 10 12 15 15 10 4 5 7 4 9 14 8 9 7 12 10 10 10 nan
nan 13 11 11 4 7 8 7 5 10 5 6 10 6 11 10 11 17 11 17 16 8 9 13 11 10 11 12 12 12 15 18 6 7 13 8 12 9 12 16 9 10 11 nan
nan 13 6 7 7 5 8 15 14 9 8 10 11 9 15 19 6 5 22 32 10 8 9 13 11 9 9 13 12 11 14 11 15 20 10 9 16 12 12 12 12 11 11 nan
nan 7 11 5 7 15 14 11 5 10 13 13 12 16 20 15 16 8 9 18 16 14 10 8 8 10 10 11 10 10 13 15 14 12 11 9 12 12 11 11 14 15 15 nan
nan nan nan nan nan nan nan nan nan nan nan nan nan nan nan nan nan nan nan nan nan nan nan nan nan nan nan nan nan nan nan nan nan nan nan nan nan nan nan nan nan nan nan nan
CAPE
0 0 0 0 0 0 0 0 0 0 0 3 3 69 1 0 0 0 0 0 0 0 0 0 0 0 0 0 0 0 0 0 0 7 21 2 0 12 134 161 197 252 294 483
0 0 0 0 0 0 0 0 0 0 0 0 0 1 18 0 2 0 0 0 0 0 0 0 0 0 0 0 0 0 0 0 0 36 112 102 68 87 149 261 253 348 258 428
0 0 0 0 0 0 0 0 0 0 0 0 4 1 0 0 0 0 0 0 0 0 0 0 0 0 0 0 0 0 0 5 30 145 122 100 227 170 198 217 188 304 312 415
0 0 0 0 0 0 0 0 0 0 0 0 0 0 0 10 0 0 0 0 0 0 0 0 0 0 0 0 0 0 0 0 51 118 181 294 400 420 280 281 245 251 381 427
0 0 0 0 0 0 0 0 0 0 0 0 0 0 0 4 9 0 0 0 0 0 0 0 0 0 0 0 0 0 0 0 33 103 255 325 233 402 362 176 261 144 248 478
0 0 0 0 0 0 0 0 0 0 0 0 0 0 0 67 215 76 2 0 0 0 0 0 0 0 0 0 0 0 0 0 0 87 180 284 302 304 342 207 294 302 275 443
0 0 0 0 0 0 0 0 0 0 0 0 0 0 0 0 0 94 57 0 0 0 0 0 0 0 0 0 0 0 0 0 0 1 144 221 310 280 327 381 470 440 512 553
0 0 0 0 0 0 0 0 0 0 0 0 0 0 0 0 0 0 10 54 0 0 0 0 0 0 0 0 0 0 0 0 0 0 13 157 249 270 335 291 485 552 586 649
0 0 0 0 0 0 0 0 0 0 0 0 0 0 0 0 0 0 0 14 40 0 0 0 0 0 0 0 0 0 7 0 0 27 120 146 210 317 284 319 329 576 650 780
0 0 0 0 0 0 0 0 0 0 0 0 0 0 0 0 0 0 0 0 44 13 0 0 0 0 0 0 0 0 2 18 24 5 134 374 399 443 483 302 320 535 592 633
0 0 0 0 0 0 0 0 0 0 0 0 0 0 0 0 0 0 0 84 33 26 4 0 0 0 0 0 0 0 11 29 40 29 50 215 454 662 682 759 533 422 505 394
0 0 0 0 0 0 0 0 0 0 0 0 0 0 0 0 0 0 0 29 459 146 46 0 0 0 0 0 0 0 8 66 88 60 50 65 260 533 860 977 978 668 552 448
0 0 0 0 0 0 0 0 0 0 0 0 0 0 0 0 0 0 0 46 424 537 124 3 0 0 0 0 0 0 22 105 123 122 125 92 166 519 744 994 1180 1308 1090 804
0 0 0 0 0 0 0 0 0 0 0 0 0 0 0 0 0 0 0 199 402 350 462 85 0 0 0 0 0 1 51 168 176 200 260 234 161 447 610 922 1017 1082 1307 1386
0 0 0 0 0 0 0 0 0 0 0 0 0 0 0 0 0 29 12 253 439 318 321 328 158 113 2 0 0 15 77 161 338 369 377 365 272 303 469 822 1121 1139 1100 1279
0 0 0 0 0 0 0 0 0 0 0 0 0 0 0 0 67 66 20 142 319 182 111 58 126 161 138 44 18 86 102 266 386 527 564 509 360 305 436 694 779 1028 1172 1227
0 0 0 0 0 0 0 0 0 0 0 0 0 0 0 74 62 129 119 81 12 76 26 14 15 123 71 62 151 64 36 523 603 579 659 609 469 445 453 725 721 770 826 847
0 0 0 0 0 0 0 0 0 0 0 93 95 109 103 217 135 157 162 181 57 23 39 16 69 200 193 216 283 307 285 180 756 727 786 727 619 620 762 863 939 945 792 596
0 0 0 0 0 0 0 0 0 0 0 46 212 269 164 164 266 137 264 222 178 103 87 79 73 56 69 177 171 419 426 93 756 867 760 967 884 694 1022 1160 716 425 246 324
0 0 0 0 0 0 0 41 0 18 0 120 382 308 125 209 280 226 324 293 217 140 106 87 76 17 24 38 225 183 58 40 13 3 183 384 507 461 242 83 72 126 263 39
0 0 0 0 0 0 0 0 47 4 0 0 224 249 125 76 295 12 12 336 271 157 112 5 9 3 3 0 50 6 0 0 1 0 9 8 77 32 3 32 46 102 6 3
0 0 0 0 0 0 0 0 1 0 0 0 41 83 151 4 0 0 0 147 162 81 0 0 0 0 0 0 11 88 25 0 0 0 9 11 146 67 60 89 72 36 4 3
0 0 0 0 0 0 1 28 0 0 0 0 15 34 6 117 0 55 26 80 5 0 0 0 0 0 0 0 0 0 1 17 0 0 0 23 180 2 46 78 14 65 63 12
0 0 0 1 0 0 0 0 0 0 0 0 0 8 8 60 85 66 8 8 0 0 0 0 0 0 0 0 0 0 0 0 0 0 0 13 141 154 174 58 140 164 47 37
0 0 0 0 0 0 0 0 0 0 0 0 34 72 112 60 66 16 11 3 1 0 0 0 0 0 0 0 0 0 0 0 0 0 0 8 3 17 1 4 2 5 1 11
0 0 0 0 0 0 0 0 0 0 61 96 107 160 213 26 11 1 0 7 4 3 0 0 0 0 0 0 0 0 0 0 0 0 0 0 13 4 0 0 0 1 1 2